Capo Bellavista, Italy

10:35 AM CET on February 27, 2017 (GMT +0100)
Capo Bellavista

Weather History for LIEB - November, 2012

Change the Weather History Date:

Friday, November 2, 2012

  Actual Average Record
Temperature  
Mean Temperature 64 °F -  
Max Temperature 72 °F 64 °F - ()
Min Temperature 56 °F 53 °F - ()
Degree Days  
Heating Degree Days 1    
Growing Degree Days 14 (Base 50)    
Moisture  
Dew Point 47 °F    
Average Humidity 55    
Maximum Humidity 72    
Minimum Humidity 34    
Precipitation  
Precipitation 0.00 in 0.08 in - ()
Sea Level Pressure  
Sea Level Pressure 29.84 in    
Wind  
Wind Speed 10 mph ()    
Max Wind Speed 21 mph    
Max Gust Speed 33 mph    
Visibility 7.9 miles    
Events      
T = Trace of Precipitation, MM = Missing Value Source: Averaged Metar Reports

Daily Weather History Graph

Daily Weather History Graph

Search for Another Location

Airport or City:

Trip Planner

Search our weather history database for the weather conditions in past years. The results will help you decide how hot, cold, wet, or windy it might be!

Date:

Astronomy

Nov. 02, 2012 Rise Set
Actual Time 6:51 AM CET 5:17 PM CET
Civil Twilight 6:23 AM CET 5:45 PM CET
Nautical Twilight 5:51 AM CET 6:17 PM CET
Astronomical Twilight 5:19 AM CET 6:49 PM CET
Moon 7:50 PM CET (11/2) 9:59 AM CET (11/2)
Length of Visible Light 11h 22m
Length of Day
10h 25m
Waning Gibbous, 89% of the Moon is Illuminated
Nov 2
Waning Gibbous
Nov 7
Last Quarter
Nov 13
New
Nov 20
First Quarter
Nov 28
Full

Hourly Weather History & Observations

Time (CET) Temp. Dew Point Humidity Pressure Visibility Wind Dir Wind Speed Gust Speed Precip Events Conditions
12:55 AM 59.0 °F 44.6 °F 59% 29.68 in - West 20.7 mph - N/A   Clear
1:00 AM 59 °F 45 °F 49% 29.69 in 12 mi West 20.7 mph - -  
2:55 AM 60.8 °F 48.2 °F 63% 29.71 in - WSW 9.2 mph - N/A   Clear
3:55 AM 59.0 °F 48.2 °F 67% 29.71 in - West 10.4 mph - N/A   Clear
4:55 AM 55.4 °F 46.4 °F 72% 29.71 in - WNW 11.5 mph - N/A   Clear
5:55 AM 59.0 °F 46.4 °F 63% 29.74 in - West 8.1 mph - N/A   Clear
6:55 AM 59.0 °F 48.2 °F 67% 29.77 in 6.2 mi West 8.1 mph - N/A   Partly Cloudy
7:00 AM 60 °F 47 °F 53% 29.77 in 12 mi West 8.1 mph - -   Scattered Clouds
7:55 AM 59.0 °F 46.4 °F 63% 29.80 in 6.2 mi WNW 5.8 mph - N/A   Partly Cloudy
8:55 AM 60.8 °F 48.2 °F 63% 29.80 in 6.2 mi West 5.8 mph - N/A   Partly Cloudy
9:55 AM 64.4 °F 51.8 °F 64% 29.83 in 6.2 mi SW 5.8 mph - N/A   Partly Cloudy
10:55 AM 68.0 °F 55.4 °F 64% 29.83 in 6.2 mi South 3.5 mph - N/A   Scattered Clouds
11:55 AM 66.2 °F 50.0 °F 56% 29.86 in 6.2 mi West 9.2 mph - N/A   Scattered Clouds
12:55 PM 66.2 °F 51.8 °F 60% 29.83 in 6.2 mi West 16.1 mph - N/A   Scattered Clouds
1:00 PM 67 °F 51 °F 46% 29.85 in 12 mi West 16.1 mph - -   Partly Cloudy
1:55 PM 68.0 °F 50.0 °F 52% 29.86 in 6.2 mi West 18.4 mph 33.4 mph N/A   Mostly Cloudy
2:55 PM 69.8 °F 50.0 °F 49% 29.86 in 6.2 mi NNE 2.3 mph - N/A   Partly Cloudy
3:55 PM 69.8 °F 44.6 °F 40% 29.89 in 6.2 mi West 15.0 mph - N/A   Partly Cloudy
4:55 PM 69.8 °F 48.2 °F 46% 29.89 in - West 4.6 mph - N/A   Clear
5:55 PM 66.2 °F 46.4 °F 49% 29.89 in - West 4.6 mph - N/A   Clear
6:55 PM 64.4 °F 42.8 °F 45% 29.92 in - WNW 9.2 mph - N/A   Clear
7:00 PM 64 °F 43 °F 34% 29.91 in 12 mi WNW 9.2 mph - -  
7:55 PM 62.6 °F 42.8 °F 48% 29.92 in - West 11.5 mph - N/A   Clear
8:55 PM 60.8 °F 44.6 °F 55% 29.95 in - WNW 10.4 mph - N/A   Clear
9:55 PM 60.8 °F 42.8 °F 52% 29.95 in - West 5.8 mph - N/A   Clear
10:55 PM 60.8 °F 42.8 °F 52% 29.95 in - West 4.6 mph - N/A   Clear
11:55 PM 60.8 °F 42.8 °F 52% 29.98 in - WNW 9.2 mph - N/A   Clear